Simultaneous Nadir Overpasses (SNOs) Predictions

Prediction of SNOs between GOES-16 and METOP-B Satellite Orbit:

Table of predicted SNOs for the next 14.0 days since TLE Epoch: 4/17/2020
Index Date Time (GOES-16) GOES-16 Lat,Lon METOP-B Lat,Lon Distance(km) Time Diff (sec)
1 04/18/2020 14:38:55 0.01, -75.19 0.52, -77.35 246.73 80
2 04/19/2020 14:18:16 0.01, -75.19 -0.64, -72.36 322.48 80
3 04/21/2020 02:39:57 -0.01, -75.17 -0.40, -76.96 203.88 80
4 04/22/2020 02:16:37 -0.01, -75.17 0.70, -71.96 365.68 80
5 04/23/2020 14:35:29 0.01, -75.21 0.29, -76.53 150.16 80
6 04/24/2020 14:14:50 0.01, -75.21 -0.81, -71.53 419.64 80
7 04/26/2020 02:36:30 -0.01, -75.20 -0.23, -76.12 106.10 80
8 04/27/2020 02:13:11 -0.01, -75.20 0.87, -71.13 463.73 80
9 04/28/2020 14:32:03 0.01, -75.24 0.11, -75.70 51.82 80
10 05/01/2020 02:33:05 -0.00, -75.24 0.00, -75.31 7.45 80




NCC Satellite Simultaneous Nadir Overpasses (SNOs) Prediction Service
